This is the latest recevied weather packets stored in our database for station/object PY2UTU-WX. If no packets are shown the sender has not sent any weather packets the latest 10 day(s).
| Time | Temp. | Humidity | Pressure | Rain* | Wind** | Luminosity | Snow |
|---|---|---|---|---|---|---|---|
| 1777586242 | 19.44° C | 98% | 925.2 hPa | - | - | - | - |
| 1777585342 | 18.89° C | 98% | 924.9 hPa | - | - | - | - |
| 1777584442 | 19.44° C | 98% | 924.8 hPa | - | - | - | - |
| 1777583542 | 20.56° C | 98% | 924.4 hPa | - | - | - | - |
| 1777582642 | 19.44° C | 98% | 924.5 hPa | - | - | - | - |
| 1777581742 | 20.56° C | 98% | 924.4 hPa | - | - | - | - |
| 1777580842 | 20.56° C | 98% | 924.5 hPa | - | - | - | - |
| 1777579942 | 20° C | 98% | 924.3 hPa | - | - | - | - |
| 1777579042 | 21.11° C | 98% | 923.9 hPa | - | - | - | - |
| 1777578142 | 21.11° C | 98% | 923.8 hPa | - | - | - | - |
| 1777577242 | 21.67° C | 98% | 923.5 hPa | - | - | - | - |
| 1777576342 | 21.11° C | 98% | 923.5 hPa | - | - | - | - |
| 1777575442 | 22.78° C | 98% | 923.2 hPa | - | - | - | - |
| 1777574542 | 23.33° C | 98% | 923 hPa | - | - | - | - |
| 1777573642 | 23.33° C | 98% | 923 hPa | - | - | - | - |
| 1777572742 | 23.89° C | 98% | 922.8 hPa | - | - | - | - |
| 1777571842 | 23.89° C | 98% | 922.9 hPa | - | - | - | - |
| 1777570942 | 23.89° C | 98% | 922.8 hPa | - | - | - | - |
| 1777570042 | 24.44° C | 98% | 922.7 hPa | - | - | - | - |
| 1777569142 | 23.89° C | 98% | 922.8 hPa | - | - | - | - |
| 1777568242 | 25° C | 98% | 922.7 hPa | - | - | - | - |
| 1777567341 | 25° C | 98% | 922.6 hPa | - | - | - | - |
| 1777566442 | 25.56° C | 98% | 922.8 hPa | - | - | - | - |
| 1777565542 | 27.78° C | 98% | 922.9 hPa | - | - | - | - |
| 1777564642 | 26.67° C | 98% | 922.9 hPa | - | - | - | - |
* Rain since midnight (hover to see other rain measurements)
** Current wind speed in m/s (hover to see current wind gust speed)